Flag for Germany Weather past 2 weeks in Neuwied, Rhineland-Palatinate, Germany

Now
90 °F

Hot.


Feels Like: 90 °F
Forecast: 70 / 93 °F
Wind: 10 mph from Southeast

Location: Buechel

Current Time: Jul 2, 2015 at 7:20:03 PM

Latest Report: Jul 2, 2015 at 6:20 PM


Visibility: N/A

Pressure: 30.15 "Hg

Humidity: 38%

Dew point: 61 °F

Location of NeuwiedLocation

Historic Weather in Neuwied — Graph

°F

Neuwied temperature yesterday

Maximum temperature yesterday: 86 °F (at 2:20 PM)
Minimum temperature yesterday: 64 °F (at 4:20 AM)
Average temperature yesterday: 76 °F

Past Weeks' High & Low Weather Summary

 TemperatureHumidityPressure
High91 °F (Jul 2, 3:20 PM)100% (Jun 18, 6:20 AM)30.24 "Hg (Jun 18, 6:20 AM)
Low43 °F (Jun 23, 2:20 AM)30% (Jun 29, 4:20 PM)29.68 "Hg (Jun 22, 9:20 PM)
Average61 °F67%30.10 "Hg
* Reported Jun 17 5:20 PM — Jul 2 5:20 PM, Neuwied, Weather by CustomWeather, © 2015

Note: Actual official high and low records may vary slightly from our data, if they occured in-between our weather recording intervals... More about our weather records

Advertising

Neuwied weather history for previous 24 hours

 ConditionsComfort  
Time TempWeatherWind HumidityBarometerVisibility
5:20 PM
Thu, Jul 2
91 °FHot.8 mph36%30.15 "HgN/A
5:03 PM91 °FPassing clouds.9 mph36%30.12 "HgN/A
4:20 PM91 °FPassing clouds.12 mph36%30.12 "HgN/A
3:20 PM91 °FPassing clouds.9 mph36%30.12 "HgN/A
2:20 PM90 °FPassing clouds.8 mph36%30.15 "HgN/A
1:20 PM88 °FWarm.8 mph40%30.15 "HgN/A
12:20 PM88 °FWarm.8 mph40%30.15 "HgN/A
11:20 AM84 °FWarm.7 mph43%30.15 "HgN/A
10:20 AM81 °FWarm.7 mph48%30.15 "HgN/A
9:20 AM77 °FWarm.8 mph54%30.15 "HgN/A
8:20 AM75 °FMild.7 mph57%30.15 "HgN/A
7:20 AM73 °FMild.6 mph57%30.15 "HgN/A
6:20 AM72 °FMild.7 mph61%30.15 "HgN/A
5:20 AM72 °FMild.7 mph57%30.12 "Hg5 mi
4:20 AM73 °FMild.7 mph53%30.12 "Hg4 mi
3:20 AM73 °FMild.6 mph53%30.12 "Hg4 mi
2:20 AM73 °FMild.6 mph53%30.12 "Hg4 mi
1:20 AM75 °FMild.6 mph50%30.12 "Hg4 mi
12:20 AM75 °FMild.6 mph47%30.12 "Hg4 mi
11:20 PM
Wed, Jul 1
77 °FWarm.7 mph42%30.12 "Hg6 mi
10:20 PM77 °FPleasantly warm.6 mph39%30.12 "Hg4 mi
9:20 PM81 °FPleasantly warm.6 mph34%30.09 "HgN/A
8:20 PM82 °FPleasantly warm.8 mph35%30.09 "HgN/A
7:20 PM84 °FPleasantly warm.8 mph33%30.09 "HgN/A
Weather by CustomWeather, © 2015

See weather overviewHow to use our weather pages